Regional Weather Roundup
Issued by NWS

Home | Current Version | Previous Version | Text Only | Print | Product List | Glossary On
Versions: 1 2 3 4 5 6 7 8 9 10 11 12 13 14 15 16 17 18 19 20 21 22 23 24 25 26 27 28 29 30 31 32 33 34 35 36 37 38 39 40 41 42 43 44 45 46 47 48 49 50
000
ASUS44 KBMX 240310
RWRAL

ALABAMA REGIONAL WEATHER ROUNDUP
NATIONAL WEATHER SERVICE BIRMINGHAM AL
1000 PM CDT SAT SEP 23 2017

NOTE: "FAIR" INDICATES FEW OR NO CLOUDS BELOW 12,000 FEET
WITH NO SIGNIFICANT WEATHER AND/OR OBSTRUCTIONS TO VISIBILITY.

THE REMARK "TC" DENOTES TEMPERATURE IN DEGREES CELSIUS.

ALZ001>011-014-016>018-020-240400-
NORTH ALABAMA

CITY           SKY/WX    TMP DP  RH WIND       PRES   REMARKS
MUSCLE SHOALS  CLEAR     75  69  81 CALM      30.02S
HUNTSVILLE     PTCLDY    74  70  87 CALM      30.02R
DECATUR        CLEAR     72  70  93 NE5       30.02S
HALEYVILLE     FAIR      70  70 100 CALM      30.04S
GADSDEN        CLEAR     70  66  87 CALM      30.03R
$$

ALZ012-013-022-023-030>036-040>044-240400-
WEST CENTRAL ALABAMA

CITY           SKY/WX    TMP DP  RH WIND       PRES   REMARKS
TUSCALOOSA     CLEAR     73  72  96 CALM      29.98S
DEMOPOLIS        N/A     69  65  88 CALM      29.97S
$$

ALZ015-024>026-033>036-041>044-240400-
CENTRAL ALABAMA

CITY           SKY/WX    TMP DP  RH WIND       PRES   REMARKS
BIRMINGHAM     PTCLDY    77  65  66 NE5       30.03S
MONTGOMERY     CLEAR     74  66  76 E3        29.98S
SHELBY CO ARPT CLEAR     75  73  93 CALM      30.01S
MAXWELL AFB    CLEAR     73  69  88 NE3       29.97S
GREENVILLE     FAIR      73  66  78 CALM      29.98S
SELMA          FAIR      70  68  94 CALM      29.97S
PRATTVILLE     FAIR      70  68  95 CALM      29.98S
BESSEMER       FAIR      75  69  81 CALM      30.02S
TALLADEGA      FAIR     N/A N/A N/A MISG      30.02S
PELL CITY      CLEAR     70  70 100 CALM      30.02R FOG
MARION         FAIR      72  71  95 CALM      29.97S
SYLACAUGA      MOCLDY    72  72 100 CALM      30.02S
$$

ALZ019-021-028-029-037-038-045>048-240400-
EAST CENTRAL ALABAMA

CITY           SKY/WX    TMP DP  RH WIND       PRES   REMARKS
ANNISTON       CLEAR     74  67  78 CALM      30.02S
ALEXANDER CITY CLEAR     70  68  94 CALM      30.01S
AUBURN         NOT AVBL
$$

ALZ051>064-240400-
SOUTHWEST ALABAMA

CITY           SKY/WX    TMP DP  RH WIND       PRES   REMARKS
MOBILE         NOT AVBL
BROOKLEY FIELD NOT AVBL
EVERGREEN      CLEAR     71  69  93 CALM      29.97S FOG
$$

ALZ049-050-065>069-240400-
SOUTHEAST ALABAMA

CITY           SKY/WX    TMP DP  RH WIND       PRES   REMARKS
DOTHAN         CLEAR     72  70  93 NE5       30.00S
OZARK          CLEAR     74  69  85 N5        29.96S
TROY           CLEAR     71  70  96 CALM      29.99R
EUFAULA        FAIR      70  69  97 CALM      29.98R
$$



USA.gov is the U.S. government's official web portal to all federal, state and local government web resources and services.